CZ-4B R/B (45858 NORAD) Tracking and Keplerian Element Data

This shows tracking and keplerian element data for the satellite.

Feedback or suggestion? Click here.




ElementValue
Catalog45858
NameCZ-4B R/B
Epoch Orbit450
Epoch Day214.80033087
Epoch Year2020
RAAN289.3607
Inclination97.9802
Eccentricity0.0180405
Argument of Perigee266.521
Mean Anonmoly91.5368
Mean Motion15.16633769
Decay Rate4.23E-06
L11 45858U 20042C 20214.80033087 .00000423 00000-0 17889-4 0 9992
L22 45858 97.9802 289.3607 0180405 266.5210 91.5368 15.16633769 4500

Live tracking and technical data element details for CZ-4B R/B (NORAD 45858). CZ-4B R/B can be tracked NOW for your location showing map with azimuth and elevation plus other details from your city location.

Track the satellite on the map from your city or location and see movement details for azimuth, elevation, latitude, longitude, range, height, and movement on the map or in text.







IsCatalogInMostPopularTable: catalog: 45858, numindb: 6
Update: records affected: 1



GetName: 45858 CZ-4B R/B

Hit Count: updated at: Fri, 14 Aug 2020 05:37:30 GMT